Find OneWeb SL0156

NORAD ID: 48052 Int'l Des: 2021-025 Owner: ONEWEBN Country: UK Constellation: oneweb operational
LEOCIRCULARPOLARONEWEB_TYPE

Live Position

Loading 3D Globe...

About OneWeb SL0156

Description loading...

Upcoming Passes

Passes for default location (London). Set your location on the main map for personalized predictions.

Altitude History

Loading altitude history...

Two-Line Element Set

1 48052U 21025L 26125.07782257 .00000188 00000-0 48074-3 0 9996
2 48052 87.8959 328.8046 0001658 89.8794 270.2525 13.13470647247915
Epoch: May 5, 2026 • Age: 17 hours

Current Status

Altitude 1213.3 km
Velocity 7.25 km/s
Sub-Earth Point 32.03°N, 2.41°W
Launch Date Mar 25, 2021
Age 5.1 years
Type internet

Technical Details

Classification Payload
Mass 148.00 kg
Dry Mass 140.00 kg
Total Mass 148.00 kg
Length 1.30 m
Diameter 1.00 m
Span 5.00 m
Shape Trapezoid+2 pan
Manufacturer ONEWUS
Bus Type ARROW
Phase Status In Orbit
Owner/State ONEWEBN/UK

Most Searched